{"data":{"norad_id":65374,"epoch":"2026-05-25T02:04:02.136576Z","epoch_age_seconds":67471,"freshness":"FRESH","line1":"1 65374U 25190Z   26145.08613584  .00018120  00000+0  62232-3 0  9994","line2":"2 65374  53.1584 173.1885 0001103  97.2726 262.8400 15.30205823 40931","mean_motion":15.30205823,"eccentricity":0.0001103,"inclination_deg":53.1584,"raan_deg":173.1885,"arg_perigee_deg":97.2726,"mean_anomaly_deg":262.84,"bstar":0.00062232,"rev_number":4093,"period_min":94.104987600743,"perigee_km":474.44176023052,"apogee_km":475.9536058616,"semimajor_km":6853.3346830461,"source":"CELESTRAK","updated_at":"2026-05-25T13:38:20.770245Z"}}